Notices

What's New in latest Release from April 7th, 2021:

- Updated Glossary, including Speed of Maximum Gust, and Total Hourly Precipitation

- Updated national and regional climate services offices contacts and prices information

- Addition of station inventory lists for 1981-2010, 1971-2000, and 1961-1990 Normals.

If you haven't already, please take our survey and provide feedback about our website: https://eccc.sondage-survey.ca/f/LanguageSelection.aspx?s=442ca660-fcf1-47c0-95a9-59707d6fd709

Hourly Data Report for April 16, 2017

MIRAMICHI RCS
NEW BRUNSWICK

47°00'34.000" N
65°27'54.000" W
33.00 m
8100989
71744
ACQ

Download Data

Hourly Data (April 2017)
Hourly Data Report for April 16, 2017
TIME
LST
Temp Definition
°C
Dew Point Definition
°C
Rel Hum Definition
%
Precip. Amount Definition
mm

Wind Dir Definition
10's deg

Wind Spd Definition
km/h
Visibility Definition
km
Stn Press Definition
kPa
Hmdx Definition


Wind Chill Definition


Weather Definition


00:00 5.7 -3.8 51 0.0 23 10   100.68     LegendNANA
01:00 5.9 -3.4 51 0.0 21 10   100.57     LegendNANA
02:00 5.6 -2.4 56 0.0 22 12   100.46     LegendNANA
03:00 5.9 -1.1 61 0.0 23 12   100.35     LegendNANA
04:00 6.3 -0.3 63 0.0 23 18   100.27     LegendNANA
05:00 5.9 -0.1 65 0.0 24 14   100.21     LegendNANA
06:00 5.3 0.8 73 0.0 24 8   100.17     LegendNANA
07:00 5.0 1.8 80 0.0 22 3   100.13     LegendNANA
08:00 5.6 2.3 79 0.0 32 1   100.12     LegendNANA
09:00 5.1 3.1 87 0.0 27 5   100.10     LegendNANA
10:00 3.7 2.8 94 0.0 35 6   100.10     LegendNANA
11:00 4.4 3.5 93 0.2 33 3   100.06     LegendNANA
12:00 6.2 3.7 84 0.0 26 5   100.01     LegendNANA
13:00 7.4 4.1 80 0.0 28 7   100.01     LegendNANA
14:00 8.9 4.4 73 0.0 30 6   100.02     LegendNANA
15:00 10.3 3.5 63 0.0 32 6   100.04     LegendNANA
16:00 9.1 3.0 66 0.0 34 4   100.12     LegendNANA
17:00 7.2 3.2 76 0.0 4 11   100.23     LegendNANA
18:00 2.9 1.3 89 0.0 7 20   100.32     LegendNANA
19:00 2.2 0.8 90 0.0 7 15   100.30     LegendNANA
20:00 2.3 0.9 91 0.0 6 14   100.37     LegendNANA
21:00 2.0 0.2 88 0.0 5 12   100.44     LegendNANA
22:00 1.4 0.4 93 0.0 5 13   100.34     LegendNANA
23:00 1.2 0.4 94 1.1 6 11   100.32     LegendNANA

Notes on Data Quality.

Legend

  • E = Estimated
  • M = Missing
  • NA = Not Available*
  • [empty] = Indicates an unobserved value
Date modified: